HISPASAT 30W-6

Last updated on Sun Jun 21 2026 00:03:07 GMT+0000 (Coordinated Universal Time)

1 43228U 18023A 26171.06481344 -.00000221 00000+0 00000+0 0 9994 2 43228 0.0445 43.1237 0005760 29.8638 188.6152 1.00271051 30436
UTC large
Height (km)
Speed (km/s)
/
Latitude / Longitude
Inclination (degrees)
Orbital Period (minutes)
Azimuth
Elevation
Range (km)
Doppler Factor

Next 0 passes for location: London (51.5072 / 0.1276)

No passes found over London.
HISPASAT 30W-6